LOT6TA EPWA-LJLJ

Flight info

Callsign LOT6TA
Flight time 1h 9m
Altitude 36000
Route EVINA N744 TUSIN DCT MIKOV DCT RADLY DCT OFROZ OFROZ1R
Aircraft E190/M-SDE3GILORVW/S

Departure

Time 2026-04-24 19:59
Airport Warsaw Chopin Airport (EPWA)

Arrival

Time 2026-04-24 21:08
Airport Ljubljana Jože Pučnik Airport (LJLJ)
Time Latitude Longitude Altitude Speed Heading
2026-04-24 19:45 52.17193 20.96678 333 ft 0 kts 208°
2026-04-24 19:55 52.17189 20.96674 333 ft 3 kts 208°
2026-04-24 19:55 52.17141 20.96630 332 ft 12 kts 184°
2026-04-24 19:56 52.17053 20.96692 330 ft 15 kts 151°
2026-04-24 19:56 52.16954 20.96778 329 ft 17 kts 153°
2026-04-24 19:56 52.16845 20.96871 330 ft 17 kts 154°
2026-04-24 19:56 52.16736 20.96967 332 ft 18 kts 150°
2026-04-24 19:57 52.16648 20.97105 335 ft 17 kts 115°
2026-04-24 19:57 52.16592 20.97302 336 ft 20 kts 115°
2026-04-24 19:57 52.16532 20.97513 336 ft 20 kts 115°
2026-04-24 19:57 52.16469 20.97728 335 ft 21 kts 120°
2026-04-24 19:58 52.16335 20.97747 333 ft 21 kts 214°
2026-04-24 19:58 52.16346 20.97524 336 ft 33 kts 294°
2026-04-24 19:58 52.16565 20.96741 332 ft 114 kts 294°
2026-04-24 19:58 52.16979 20.95309 469 ft 159 kts 295°
2026-04-24 19:59 52.17451 20.93614 1153 ft 169 kts 291°
2026-04-24 19:59 52.17864 20.91843 2024 ft 176 kts 288°
2026-04-24 19:59 52.17836 20.89770 2767 ft 201 kts 264°
2026-04-24 19:59 52.17493 20.87446 3639 ft 222 kts 247°
2026-04-24 20:00 52.16346 20.85553 4316 ft 258 kts 214°
2026-04-24 20:00 52.14773 20.84056 5267 ft 272 kts 212°
2026-04-24 20:00 52.13132 20.82472 6401 ft 277 kts 213°
2026-04-24 20:00 52.11426 20.81053 7581 ft 281 kts 208°
2026-04-24 20:01 52.09659 20.79779 8685 ft 285 kts 206°
2026-04-24 20:01 52.07847 20.78566 9720 ft 289 kts 205°
2026-04-24 20:01 52.05973 20.77357 10695 ft 295 kts 205°
2026-04-24 20:01 52.04054 20.76141 11448 ft 307 kts 204°
2026-04-24 20:02 52.02690 20.75283 11904 ft 317 kts 204°
2026-04-24 20:02 51.99892 20.73534 12812 ft 334 kts 204°
2026-04-24 20:02 51.97715 20.72177 13610 ft 342 kts 204°
2026-04-24 20:02 51.95489 20.70793 14510 ft 346 kts 204°
2026-04-24 20:03 51.93247 20.69400 15407 ft 350 kts 205°
2026-04-24 20:03 51.90956 20.67978 16279 ft 354 kts 205°
2026-04-24 20:03 51.88662 20.66555 17108 ft 358 kts 205°
2026-04-24 20:03 51.86349 20.65122 17897 ft 363 kts 206°
2026-04-24 20:04 51.83982 20.63658 18668 ft 368 kts 206°
2026-04-24 20:04 51.81583 20.62176 19446 ft 373 kts 206°
2026-04-24 20:04 51.79148 20.60672 20217 ft 377 kts 206°
2026-04-24 20:04 51.76697 20.59161 20981 ft 381 kts 206°
2026-04-24 20:05 51.74245 20.57651 21722 ft 385 kts 207°
2026-04-24 20:05 51.71747 20.56114 22451 ft 389 kts 207°
2026-04-24 20:05 51.69223 20.54564 23175 ft 392 kts 207°
2026-04-24 20:05 51.66662 20.52991 23872 ft 396 kts 207°
2026-04-24 20:06 51.64069 20.51402 24514 ft 401 kts 207°
2026-04-24 20:06 51.61462 20.49806 25101 ft 407 kts 207°
2026-04-24 20:06 51.58823 20.48193 25729 ft 412 kts 207°
2026-04-24 20:06 51.56154 20.46563 26352 ft 416 kts 207°
2026-04-24 20:07 51.54330 20.45451 26772 ft 419 kts 208°
2026-04-24 20:07 51.50710 20.43245 27589 ft 424 kts 208°
2026-04-24 20:07 51.47937 20.41558 28185 ft 429 kts 207°
2026-04-24 20:07 51.45147 20.39864 28758 ft 433 kts 207°
2026-04-24 20:08 51.42334 20.38157 29339 ft 437 kts 208°
2026-04-24 20:08 51.39541 20.36342 29868 ft 437 kts 213°
2026-04-24 20:08 51.36933 20.33855 30381 ft 432 kts 223°
2026-04-24 20:08 51.34550 20.30928 30906 ft 435 kts 225°
2026-04-24 20:09 51.32153 20.28006 31426 ft 439 kts 224°
2026-04-24 20:09 51.29725 20.25070 31963 ft 442 kts 224°
2026-04-24 20:09 51.27259 20.22098 32560 ft 444 kts 224°
2026-04-24 20:09 51.24832 20.19180 33248 ft 442 kts 224°
2026-04-24 20:10 51.22373 20.16227 33976 ft 440 kts 224°
2026-04-24 20:10 51.19968 20.13343 34674 ft 438 kts 224°
2026-04-24 20:10 51.17538 20.10431 35389 ft 436 kts 224°
2026-04-24 20:10 51.15128 20.07549 35944 ft 428 kts 224°
2026-04-24 20:11 51.12767 20.04725 35987 ft 435 kts 224°
2026-04-24 20:11 51.10307 20.01788 36012 ft 447 kts 224°
2026-04-24 20:11 51.07805 19.98814 36008 ft 459 kts 224°
2026-04-24 20:12 51.02679 19.92742 36002 ft 461 kts 224°
2026-04-24 20:12 50.97575 19.86703 36005 ft 461 kts 224°
2026-04-24 20:13 50.92442 19.80643 36008 ft 459 kts 224°
2026-04-24 20:13 50.87351 19.74648 35996 ft 459 kts 224°
2026-04-24 20:14 50.82236 19.68644 35999 ft 459 kts 224°
2026-04-24 20:14 50.77108 19.62639 36002 ft 461 kts 224°
2026-04-24 20:15 50.71970 19.56641 36002 ft 460 kts 224°
2026-04-24 20:15 50.66840 19.50668 36003 ft 460 kts 224°
2026-04-24 20:16 50.61730 19.44734 36007 ft 460 kts 224°
2026-04-24 20:16 50.56597 19.38791 36010 ft 460 kts 224°
2026-04-24 20:17 50.51425 19.32819 36019 ft 462 kts 223°
2026-04-24 20:17 50.43691 19.23922 36027 ft 462 kts 223°
2026-04-24 20:18 50.38526 19.17999 36025 ft 460 kts 223°
2026-04-24 20:18 50.33372 19.12105 36030 ft 460 kts 223°
2026-04-24 20:19 50.28223 19.06234 36031 ft 462 kts 223°
2026-04-24 20:19 50.23032 19.00331 36031 ft 462 kts 223°
2026-04-24 20:20 50.17875 18.94482 36040 ft 460 kts 223°
2026-04-24 20:20 50.12686 18.88613 36038 ft 461 kts 223°
2026-04-24 20:21 50.07500 18.82763 36047 ft 463 kts 223°
2026-04-24 20:21 50.02306 18.76921 36046 ft 463 kts 223°
2026-04-24 20:22 49.97127 18.71111 36044 ft 462 kts 223°
2026-04-24 20:22 49.91909 18.65274 36049 ft 462 kts 223°
2026-04-24 20:23 49.86708 18.59469 36046 ft 462 kts 223°
2026-04-24 20:23 49.82257 18.52634 36051 ft 448 kts 239°
2026-04-24 20:24 49.78380 18.45184 36044 ft 447 kts 238°
2026-04-24 20:24 49.74442 18.37715 36045 ft 448 kts 238°
2026-04-24 20:25 49.70500 18.30266 36053 ft 448 kts 237°
2026-04-24 20:25 49.66566 18.22852 36052 ft 450 kts 237°
2026-04-24 20:26 49.62609 18.15419 36049 ft 450 kts 237°
2026-04-24 20:26 49.58629 18.07961 36049 ft 451 kts 237°
2026-04-24 20:27 49.54694 18.00609 36056 ft 451 kts 237°
2026-04-24 20:27 49.50727 17.93217 36054 ft 451 kts 237°
2026-04-24 20:28 49.46770 17.85867 36050 ft 449 kts 237°
2026-04-24 20:28 49.42775 17.78466 36050 ft 449 kts 237°
2026-04-24 20:29 49.38792 17.71105 36048 ft 450 kts 236°
2026-04-24 20:29 49.34808 17.63765 36053 ft 450 kts 236°
2026-04-24 20:30 49.30843 17.56481 36053 ft 449 kts 236°
2026-04-24 20:30 49.26833 17.49136 36050 ft 449 kts 236°
2026-04-24 20:31 49.22815 17.41793 36049 ft 450 kts 236°
2026-04-24 20:31 49.18799 17.34475 36053 ft 450 kts 235°
2026-04-24 20:32 49.14779 17.27172 36057 ft 450 kts 235°
2026-04-24 20:32 49.10762 17.19894 36064 ft 451 kts 235°
2026-04-24 20:33 49.06744 17.12634 36063 ft 450 kts 235°
2026-04-24 20:33 49.02728 17.05396 36060 ft 450 kts 235°
2026-04-24 20:34 48.98694 16.98146 36067 ft 451 kts 235°
2026-04-24 20:34 48.94659 16.90917 36058 ft 450 kts 235°
2026-04-24 20:35 48.90602 16.83666 36066 ft 450 kts 235°
2026-04-24 20:35 48.86549 16.76442 36058 ft 451 kts 235°
2026-04-24 20:36 48.82502 16.69248 36064 ft 451 kts 235°
2026-04-24 20:36 48.78029 16.62528 36076 ft 461 kts 221°
2026-04-24 20:37 48.72380 16.57876 36078 ft 469 kts 208°
2026-04-24 20:37 48.66477 16.53834 36070 ft 467 kts 209°
2026-04-24 20:38 48.60525 16.49749 36077 ft 468 kts 208°
2026-04-24 20:38 48.54574 16.45675 36073 ft 468 kts 209°
2026-04-24 20:39 48.48679 16.41649 36075 ft 469 kts 208°
2026-04-24 20:39 48.42696 16.37572 36076 ft 470 kts 208°
2026-04-24 20:40 48.36759 16.33538 36077 ft 470 kts 207°
2026-04-24 20:40 48.30796 16.29498 36080 ft 469 kts 207°
2026-04-24 20:41 48.24856 16.25483 36082 ft 470 kts 207°
2026-04-24 20:41 48.18929 16.21486 36083 ft 470 kts 207°
2026-04-24 20:42 48.12962 16.17473 36083 ft 470 kts 207°
2026-04-24 20:42 48.07008 16.13479 36085 ft 470 kts 207°
2026-04-24 20:43 48.01064 16.09502 36088 ft 469 kts 207°
2026-04-24 20:43 47.95088 16.05513 36089 ft 470 kts 207°
2026-04-24 20:44 47.89225 16.01612 36084 ft 454 kts 207°
2026-04-24 20:44 47.83485 15.97799 36090 ft 452 kts 207°
2026-04-24 20:45 47.80603 15.95888 35970 ft 457 kts 207°
2026-04-24 20:45 47.77717 15.93977 35459 ft 456 kts 207°
2026-04-24 20:45 47.74814 15.92058 34965 ft 455 kts 207°
2026-04-24 20:45 47.71945 15.90163 34466 ft 455 kts 206°
2026-04-24 20:46 47.69036 15.88244 33976 ft 457 kts 206°
2026-04-24 20:46 47.66140 15.86336 33476 ft 458 kts 206°
2026-04-24 20:46 47.63231 15.84421 32970 ft 458 kts 206°
2026-04-24 20:46 47.60297 15.82493 32461 ft 458 kts 206°
2026-04-24 20:47 47.57408 15.80597 31958 ft 459 kts 206°
2026-04-24 20:47 47.54500 15.78690 31449 ft 461 kts 206°
2026-04-24 20:47 47.51570 15.76772 30940 ft 461 kts 206°
2026-04-24 20:47 47.48621 15.74843 30427 ft 457 kts 206°
2026-04-24 20:48 47.45750 15.72968 29924 ft 453 kts 206°
2026-04-24 20:48 47.42888 15.71101 29428 ft 448 kts 206°
2026-04-24 20:48 47.40055 15.69254 28936 ft 445 kts 206°
2026-04-24 20:48 47.37231 15.67416 28447 ft 442 kts 206°
2026-04-24 20:49 47.34460 15.65615 27966 ft 439 kts 205°
2026-04-24 20:49 47.31662 15.63798 27481 ft 436 kts 206°
2026-04-24 20:49 47.28890 15.61999 27000 ft 433 kts 205°
2026-04-24 20:49 47.26171 15.60238 26524 ft 430 kts 205°
2026-04-24 20:50 47.23429 15.58463 26047 ft 426 kts 205°
2026-04-24 20:50 47.20759 15.56738 25581 ft 423 kts 206°
2026-04-24 20:50 47.18058 15.54993 25112 ft 420 kts 205°
2026-04-24 20:50 47.15431 15.53298 24659 ft 418 kts 205°
2026-04-24 20:51 47.12781 15.51591 24200 ft 416 kts 205°
2026-04-24 20:51 47.10134 15.49887 23737 ft 413 kts 205°
2026-04-24 20:51 47.07516 15.48204 23276 ft 411 kts 205°
2026-04-24 20:51 47.04923 15.46539 22824 ft 407 kts 205°
2026-04-24 20:52 47.02335 15.44878 22373 ft 404 kts 205°
2026-04-24 20:52 46.99784 15.43243 21931 ft 402 kts 205°
2026-04-24 20:52 46.97207 15.41593 21482 ft 399 kts 205°
2026-04-24 20:52 46.94678 15.39977 21044 ft 398 kts 205°
2026-04-24 20:53 46.92171 15.38374 20612 ft 395 kts 205°
2026-04-24 20:53 46.89690 15.36791 20178 ft 393 kts 205°
2026-04-24 20:53 46.87176 15.35188 19741 ft 389 kts 205°
2026-04-24 20:53 46.84726 15.33628 19329 ft 387 kts 205°
2026-04-24 20:54 46.82239 15.32046 18901 ft 386 kts 205°
2026-04-24 20:54 46.79797 15.30494 18468 ft 384 kts 205°
2026-04-24 20:54 46.77354 15.28942 18050 ft 382 kts 205°
2026-04-24 20:54 46.74923 15.27400 17634 ft 380 kts 205°
2026-04-24 20:55 46.72503 15.25866 17219 ft 378 kts 205°
2026-04-24 20:55 46.70128 15.24362 16809 ft 376 kts 205°
2026-04-24 20:55 46.67707 15.22831 16388 ft 374 kts 205°
2026-04-24 20:55 46.65337 15.21333 15978 ft 372 kts 205°
2026-04-24 20:56 46.62965 15.19870 15568 ft 369 kts 204°
2026-04-24 20:56 46.60635 15.18446 15164 ft 368 kts 204°
2026-04-24 20:56 46.58257 15.16994 14758 ft 366 kts 204°
2026-04-24 20:56 46.55941 15.15582 14350 ft 364 kts 204°
2026-04-24 20:57 46.53581 15.14144 13904 ft 363 kts 204°
2026-04-24 20:57 46.51270 15.12738 13497 ft 361 kts 204°
2026-04-24 20:57 46.48960 15.11333 13089 ft 358 kts 204°
2026-04-24 20:57 46.46693 15.09956 12696 ft 356 kts 205°
2026-04-24 20:58 46.44428 15.08581 12302 ft 353 kts 205°
2026-04-24 20:58 46.42176 15.07215 11911 ft 351 kts 205°
2026-04-24 20:58 46.39941 15.05861 11519 ft 344 kts 205°
2026-04-24 20:58 46.37765 15.04544 11139 ft 336 kts 205°
2026-04-24 20:59 46.35630 15.03252 10769 ft 328 kts 205°
2026-04-24 20:59 46.33571 15.02008 10409 ft 320 kts 205°
2026-04-24 20:59 46.31541 15.00763 10053 ft 311 kts 210°
2026-04-24 20:59 46.29762 14.99111 9788 ft 302 kts 219°
2026-04-24 21:00 46.28053 14.97381 9472 ft 301 kts 219°
2026-04-24 21:00 46.26359 14.95667 9151 ft 299 kts 218°
2026-04-24 21:00 46.24653 14.93941 8846 ft 296 kts 218°
2026-04-24 21:00 46.22988 14.92258 8524 ft 293 kts 218°
2026-04-24 21:01 46.21318 14.90570 8199 ft 291 kts 217°
2026-04-24 21:01 46.19678 14.88915 7932 ft 288 kts 217°
2026-04-24 21:01 46.18037 14.87260 7626 ft 287 kts 217°
2026-04-24 21:01 46.16422 14.85631 7326 ft 284 kts 217°
2026-04-24 21:02 46.14804 14.84001 7051 ft 283 kts 216°
2026-04-24 21:02 46.13207 14.82392 6740 ft 281 kts 216°
2026-04-24 21:02 46.11607 14.80783 6435 ft 280 kts 216°
2026-04-24 21:02 46.10018 14.79185 6129 ft 277 kts 216°
2026-04-24 21:03 46.08693 14.77254 5828 ft 272 kts 244°
2026-04-24 21:03 46.08332 14.74656 5561 ft 270 kts 276°
2026-04-24 21:03 46.08983 14.72189 5082 ft 263 kts 305°
2026-04-24 21:03 46.09982 14.70096 4660 ft 243 kts 302°
2026-04-24 21:04 46.10896 14.68138 4322 ft 230 kts 305°
2026-04-24 21:04 46.11811 14.66298 4119 ft 220 kts 306°
2026-04-24 21:04 46.12676 14.64600 4031 ft 203 kts 306°
2026-04-24 21:04 46.13505 14.62986 3801 ft 196 kts 306°
2026-04-24 21:05 46.14302 14.61439 3560 ft 190 kts 306°
2026-04-24 21:05 46.15083 14.59924 3317 ft 185 kts 306°
2026-04-24 21:05 46.15846 14.58442 3075 ft 184 kts 306°
2026-04-24 21:05 46.16609 14.56961 2834 ft 184 kts 306°
2026-04-24 21:06 46.17363 14.55496 2588 ft 185 kts 306°
2026-04-24 21:06 46.18121 14.54024 2342 ft 176 kts 306°
2026-04-24 21:06 46.18800 14.52703 2135 ft 155 kts 306°
2026-04-24 21:06 46.19406 14.51524 1909 ft 139 kts 306°
2026-04-24 21:07 46.19953 14.50459 1721 ft 127 kts 306°
2026-04-24 21:07 46.20477 14.49441 1514 ft 127 kts 307°
2026-04-24 21:07 46.21000 14.48410 1357 ft 127 kts 306°
2026-04-24 21:07 46.21534 14.47391 1239 ft 127 kts 307°
2026-04-24 21:08 46.22034 14.46416 1218 ft 107 kts 306°
2026-04-24 21:08 46.22392 14.45715 1235 ft 61 kts 306°
2026-04-24 21:08 46.22569 14.45432 1244 ft 25 kts 332°
2026-04-24 21:08 46.22716 14.45346 1250 ft 15 kts 344°
2026-04-24 21:09 46.22812 14.45315 1254 ft 12 kts
2026-04-24 21:09 46.22885 14.45359 1258 ft 9 kts 37°
2026-04-24 21:09 46.22931 14.45409 1261 ft 6 kts 29°
2026-04-24 21:09 46.22964 14.45432 1262 ft 4 kts 34°
2026-04-24 21:10 46.22987 14.45457 1264 ft 4 kts 37°
2026-04-24 21:10 46.22999 14.45468 1264 ft 0 kts 36°